Regional Weather Roundup
Issued by NWS

Home | Current Version | Previous Version | Graphics & Text | Print | Product List | Glossary On
Versions: 1 2 3 4 5 6 7 8 9 10 11 12 13 14 15 16 17 18 19 20 21 22 23 24 25 26 27 28 29 30 31 32 33 34 35 36 37 38 39 40 41 42 43 44 45 46 47 48 49 50
590
ASUS45 KBOI 292010
RWRID

IDAHO REGIONAL WEATHER ROUNDUP
NATIONAL WEATHER SERVICE BOISE ID
200 PM MDT FRI APR 29 2016

NOTE: "FAIR" INDICATES FEW OR NO CLOUDS BELOW 12000 FEET
WITH NO SIGNIFICANT WEATHER AND/OR OBSTRUCTIONS TO VISIBILITY

IDZ012-014-292100-
SOUTHWEST IDAHO


CITY           SKY/WX    TMP DP  RH WIND       PRES   REMARKS
BOISE          MOSUNNY   61  38  42 NW13G22   29.87F
CALDWELL       PTSUNNY   62  39  42 NW13      29.88F
MOUNTAIN HOME  MOSUNNY   64  36  35 NW16G26   29.85F
$$

IDZ016-017-292100-
SOUTHCENTRAL IDAHO


CITY           SKY/WX    TMP DP  RH WIND       PRES   REMARKS
BURLEY         PTSUNNY   55  37  50 VRB7      29.84F
JEROME         PTSUNNY   57  37  47 W22       29.84F
TWIN FALLS     MOSUNNY   59  36  42 W14G23    29.85F
$$

IDZ019>023-292100-
SOUTHEAST IDAHO


CITY           SKY/WX    TMP DP  RH WIND       PRES   REMARKS
IDAHO FALLS    CLOUDY    50  34  54 VRB6      29.87F
POCATELLO      CLOUDY    51  41  68 N8        29.87F
REXBURG        PTSUNNY   50  33  52 W6        29.86F
$$

IDZ006-010-011-018-031-032-292100-
CENTRAL IDAHO MOUNTAINS


CITY           SKY/WX    TMP DP  RH WIND       PRES   REMARKS
MCCALL         LGT RAIN  44  39  82 W3        29.88F
HAILEY         CLOUDY    46  39  76 SE7       29.87F
STANLEY          N/A     43  34  70 N5        29.88S
SALMON         CLOUDY    48  34  57 CALM      29.85F
CHALLIS        CLOUDY    50  34  54 CALM      29.83S
$$

IDZ002-004-006-007-026-292100-
NORTHERN IDAHO


CITY           SKY/WX    TMP DP  RH WIND       PRES   REMARKS
LEWISTON       LGT RAIN  51  44  77 CALM      29.96S
LOWELL           N/A     49  45  86 N5        29.96R
COEUR D`ALENE  CLOUDY    52  37  58 W7        29.92S
MULLAN PASS    MIX PCPN  34  27  75 CALM      29.90S
$$




USA.gov is the U.S. government's official web portal to all federal, state and local government web resources and services.